Regional Weather Roundup
Issued by NWS Cleveland, OH

Home | Current Version | Previous Version | Graphics & Text | Print | Product List | Glossary On
Versions: 1 2 3 4 5 6 7 8 9 10 11 12 13 14 15 16 17 18 19 20 21 22 23 24 25 26 27 28 29 30 31 32 33 34 35 36 37 38 39 40 41 42 43 44 45 46 47 48 49 50
223
ASUS41 KCLE 220612
RWRCLE
OHIO REGIONAL WEATHER ROUNDUP
NATIONAL WEATHER SERVICE WILMINGTON, OH
100 AM EST WED NOV 22 2017

NOTE: "FAIR" INDICATES FEW OR NO CLOUDS BELOW 12,000 FEET WITH NO
SIGNIFICANT WEATHER AND/OR OBSTRUCTIONS TO VISIBILITY.

OHZ001>008-015>018-024>027-034-035-043-044-220700-
   NORTHWEST OHIO

CITY           SKY/WX    TMP DP  RH WIND       PRES   REMARKS
DEFIANCE       CLOUDY    35  23  61 N10       30.09R WCI  27
FINDLAY        CLOUDY    36  28  73 W13       30.06R
TOLEDO EXPRESS CLOUDY    36  29  75 NW10      30.07R
TOLEDO EXEC    CLOUDY    36  28  73 NW10      30.07R
LIMA           CLOUDY    33  29  85 NW12      30.07R WCI  24
$$

OHZ009>014-019>023-028>033-038-089-220700-
   NORTHEAST OHIO

CITY           SKY/WX    TMP DP  RH WIND       PRES   REMARKS
CLE-HOPKINS    CLOUDY    37  35  92 SW7       30.03S
CLE-LAKEFRONT  CLOUDY    40  35  83 W15G22    30.00S
CUY CO. ARPT   NOT AVBL
LORAIN-ELYRIA  CLOUDY    37  30  75 NW8       30.03R
ASHTABULA      LGT RAIN  36  35  96 NW5       29.98S FOG
AKRON-CANTON   LGT RAIN  37  33  85 NW13      29.98R
WOOSTER        NOT AVBL
MANSFIELD      CLOUDY    35  32  88 W6        30.03R
YOUNGSTOWN     LGT RAIN  38  35  89 W13G20    29.95R
$$

OHZ042-051>053-060>062-070>072-077>081-220700-
  SOUTHWEST OHIO

CITY           SKY/WX    TMP DP  RH WIND       PRES   REMARKS
CINC-COVINGTON CLOUDY    36  33  89 NW12      30.12R
CINC-LUNKEN    CLOUDY    38  32  79 NW12      30.15R
HAMILTON       MOCLDY    36  30  79 NW9       30.15R
DAYTON         CLOUDY    32  30  92 NW9       30.11R WCI  24
WRIGHT-PAT AFB MOCLDY    36  30  80 NW12      30.09R
DAYTON GENERAL FAIR      34  29  82 NW8G18    30.10R WCI  27
WILMINGTON     CLOUDY    34  34 100 W9        30.08S WCI  27
$$

OHZ036-037-039>041-045>050-054>059-063>069-073>076-082>088-220700-
  CENTRAL AND SOUTHEAST OHIO

CITY           SKY/WX    TMP DP  RH WIND       PRES   REMARKS
COLUMBUS       LGT RAIN  37  36  96 NW7       30.06R
OSU AIRPORT    CLOUDY    36  36 100 NW7       30.06R
BOLTON FIELD   LGT RAIN  35  34  96 NW6       30.06R WCI  30
RICKENBACK AFB RAIN      36  35  96 NW12      30.06R
NEWARK         LGT RAIN  38  33  82 NW9       30.04R
MARION         CLOUDY    36  30  79 NW9       30.06R
LANCASTER      LGT RAIN  37  35  92 NW13      30.05R
ZANESVILLE     CLOUDY    44  35  70 NW20G28   30.01R
NEW PHILLY     CLOUDY    43  35  73 NW18G25   30.00R
$$




USA.gov is the U.S. government's official web portal to all federal, state and local government web resources and services.